OSCAR 7 (AO-7) 1 07530U 74089B 26103.77267182 -.00000027 00000+0 12067-3 0 9993 2 07530 101.9944 116.3401 0011879 253.5120 287.5368 12.53697056352446 PHASE 3B (AO-10) 1 14129U 83058B 26102.81319713 -.00000295 00000+0 00000+0 0 9990 2 14129 25.8997 230.4827 6034279 97.6141 330.5213 2.05874162294146 UOSAT 2 (UO-11) 1 14781U 84021B 26103.84967010 .00000994 00000+0 10712-3 0 9998 2 14781 97.8005 70.1724 0008686 45.1690 315.0233 14.90629114247542 LUSAT (LO-19) 1 20442U 90005G 26104.06414352 .00000086 00000+0 47410-4 0 9997 2 20442 98.8901 124.0890 0012233 38.8512 321.3548 14.34102866893204 EYESAT A (AO-27) 1 22825U 93061C 26104.15896090 .00000050 00000+0 36187-4 0 9992 2 22825 98.6918 171.5836 0007267 290.8595 69.1809 14.30924882697841 ITAMSAT (IO-26) 1 22826U 93061D 26104.15741047 .00000058 00000+0 38819-4 0 9996 2 22826 98.6867 171.4931 0007731 271.7193 88.3104 14.31350112698154 RADIO ROSTO (RS15) 1 23439U 94085A 26104.17115438 -.00000053 00000+0 -29752-3 0 9997 2 23439 64.8190 46.7453 0154028 15.4941 345.0623 11.27583846288684 JAS-2 (FO-29) 1 24278U 96046B 26104.13449561 -.00000017 00000+0 21729-4 0 9997 2 24278 98.5321 321.7499 0348814 262.6434 93.4946 13.53271120464502 TECHSAT 1B (GO-32) 1 25397U 98043D 26103.51078617 .00000039 00000+0 37238-4 0 9995 2 25397 99.0057 94.6453 0002164 63.7631 296.3769 14.24415573442129 ISS (ZARYA) 1 25544U 98067A 26104.13467087 .00005375 00000+0 10597-3 0 9993 2 25544 51.6322 257.0967 0006556 310.1862 49.8552 15.48905907561823 PCSAT (NO-44) 1 26931U 01043C 26104.11051850 .00000073 00000+0 58137-4 0 9990 2 26931 67.0515 49.9992 0006685 264.3151 95.7189 14.31930822281278 SAUDISAT 1C (SO-50) 1 27607U 02058C 26104.02404711 .00000516 00000+0 78925-4 0 9995 2 27607 64.5527 327.4839 0075534 274.1485 85.0991 14.82907051254947 CUTE-1 (CO-55) 1 27844U 03031E 26103.75937083 .00000217 00000+0 11299-3 0 9990 2 27844 98.6766 113.1241 0009892 19.9623 340.1941 14.24295359182502 CUBESAT XI-IV (CO-57) 1 27848U 03031J 26103.57507156 .00000185 00000+0 10026-3 0 9999 2 27848 98.6796 112.7063 0010141 37.9126 322.2764 14.23586039182188 MOZHAETS 4 (RS22) 1 27939U 03042A 26104.23915003 .00000549 00000+0 93002-4 0 9990 2 27939 98.3467 286.7962 0012454 109.3091 304.9389 14.73352088206137 CUBESAT XI-V 1 28895U 05043F 26104.18955008 .00000891 00000+0 14852-3 0 9993 2 28895 98.2904 258.5019 0014986 52.4690 307.7876 14.72462584 92338 CUTE-1.7+APD II (CO-65) 1 32785U 08021C 26104.19855922 .00002782 00000+0 18088-3 0 9996 2 32785 97.8245 84.3322 0007257 240.6663 119.3841 15.08852000975548 SEEDS II (CO-66) 1 32791U 08021J 26103.71789896 .00010664 00000+0 36319-3 0 9991 2 32791 97.7525 98.6538 0004058 140.6517 219.5019 15.30587421977421 YUBILEINY (RS30) 1 32953U 08025A 26104.11835745 .00000028 00000+0 12982-3 0 9998 2 32953 82.5062 35.2847 0020581 90.1810 270.1628 12.43177604811732 KKS-1 (KISEKI) 1 33499U 09002H 26104.15999128 .00000870 00000+0 11398-3 0 9995 2 33499 98.1189 25.5982 0008868 130.8617 229.3365 14.82958305926702 SWISSCUBE 1 35932U 09051B 26104.19559638 .00000643 00000+0 13697-3 0 9997 2 35932 98.4073 10.9647 0007962 57.3265 302.8702 14.62356030879808 BEESAT-1 1 35933U 09051C 26104.17216382 .00000532 00000+0 11691-3 0 9991 2 35933 98.4001 10.7088 0006541 70.2330 289.9575 14.61614343879835 ITUPSAT1 1 35935U 09051E 26104.17572016 .00000489 00000+0 11121-3 0 9991 2 35935 98.4089 9.9714 0008772 78.6877 281.5308 14.60342610879392 XIWANG-1 (HOPE-1) 1 36122U 09072B 26104.17662537 -.00000305 00000+0 -68269-3 0 9995 2 36122 100.3966 59.0477 0007866 24.2412 335.9070 13.16435931784580 O/OREOS (USA 219) 1 37224U 10062C 26104.03329263 .00001406 00000+0 13934-3 0 9991 2 37224 71.9709 225.6233 0015094 196.0839 163.9855 14.93487465107063 JUGNU 1 37839U 11058B 26103.99465079 .00000406 00000+0 72464-4 0 9992 2 37839 19.9624 338.4145 0018601 87.7923 315.9848 14.13756823749933 SRMSAT 1 37841U 11058D 26104.10637894 .00000369 00000+0 56189-4 0 9999 2 37841 19.9716 87.3319 0011658 218.0208 212.2547 14.11560176748757 STRAND-1 1 39090U 13009E 26104.07277620 .00000210 00000+0 85095-4 0 9991 2 39090 98.3911 285.8887 0009740 66.5337 293.6872 14.37125067687857 ZACUBE-1 (TSHEPISOSAT) 1 39417U 13066B 26104.14056076 .00002298 00000+0 18272-3 0 9995 2 39417 97.8125 66.1377 0044982 105.5324 255.0872 15.00663839671122 GOMX-1 1 39430U 13066Q 26104.17198642 .00001128 00000+0 17700-3 0 9995 2 39430 97.6540 308.6623 0127661 283.3669 75.3332 14.69232136660518 CUBEBUG-2 (LO-74) 1 39440U 13066AA 26103.81260905 .00002358 00000+0 22396-3 0 9991 2 39440 97.8858 52.5627 0056480 240.0758 119.4845 14.93331692667386 FUNCUBE-1 (AO-73) 1 39444U 13066AE 26103.86977851 .00005501 00000+0 35027-3 0 9993 2 39444 97.8226 74.0354 0038589 63.9684 296.5509 15.08574092669965 UWE-3 1 39446U 13066AG 26103.43540102 .00002441 00000+0 21488-3 0 9999 2 39446 97.8655 59.1237 0049495 173.3046 186.8847 14.96527693667890 UNISAT-6 1 40012U 14033C 26103.84845157 .00001755 00000+0 19465-3 0 9997 2 40012 97.7790 257.7392 0043937 280.7140 78.9131 14.87875022636593 DUCHIFAT-1 1 40021U 14033M 26104.09232147 .00038462 00000+0 58124-3 0 9994 2 40021 98.0564 154.8163 0002996 289.9011 70.1918 15.54624643645769 QB50P1 1 40025U 14033R 26104.00151678 .00004620 00000+0 23562-3 0 9995 2 40025 98.0998 110.6928 0010769 87.4762 272.7703 15.17257056643291 LILACSAT-2 1 40908U 15049K 26104.11629115 .00010609 00000+0 19500-3 0 9992 2 40908 97.4750 138.5937 0008825 119.9489 240.2639 15.49373210585824 FOX-1A (AO-85) 1 40967U 15058D 26104.15365987 .00001453 00000+0 14231-3 0 9998 2 40967 64.7725 117.9180 0128372 81.7350 279.8295 14.90581938104020 CAS-2T & KS-1Q 1 41847U 16066G 26104.17094911 .00000379 00000+0 63286-4 0 9995 2 41847 98.3840 180.6270 0341501 323.9679 33.8917 14.44553884495550 RADFXSAT (FOX-1B) 1 43017U 17073E 26104.08531517 .00004155 00000+0 18749-3 0 9992 2 43017 97.4808 332.6405 0153357 189.1452 170.6980 15.11587364455703 DIWATA-2B 1 43678U 18084H 26104.20949878 .00001450 00000+0 12122-3 0 9999 2 43678 98.1050 297.7085 0013909 23.2958 336.8892 15.00144795406625 ES'HAIL 2 1 43700U 18090A 26104.16398263 .00000148 00000+0 00000+0 0 9994 2 43700 0.0161 249.6638 0001191 154.7732 242.7238 1.00271892 27033 FOX-1CLIFF (AO-95) 1 43770U 18099N 26104.14389933 .00005469 00000+0 21958-3 0 9992 2 43770 97.4445 164.6778 0008530 203.4823 156.6026 15.25349640403454 ITASAT 1 43786U 18099AE 26104.10742725 .00003587 00000+0 17820-3 0 9999 2 43786 97.4100 156.9170 0012118 209.2284 150.8274 15.18243433403187 JY1SAT (JO-97) 1 43803U 18099AX 26104.11110515 .00009483 00000+0 31245-3 0 9994 2 43803 97.4194 166.8073 0007274 132.9283 227.2570 15.31661109403817 UWE-4 1 43880U 18111E 26103.73549387 .00017339 00000+0 40295-3 0 9998 2 43880 97.5852 29.3603 0008177 177.3772 182.7519 15.42377655400834 TIANYAN 01 1 44881U 19093C 26104.16268654 .00000960 00000+0 11465-3 0 9992 2 44881 97.7560 177.9516 0012273 301.4990 58.5026 14.86418806341907 RS-44 & BREEZE-KM R/B 1 44909U 19096E 26104.13128624 .00000000 00000+0 -37811-4 0 9995 2 44909 82.5263 22.2678 0216478 294.3230 63.5403 12.79747913294154 SALSAT 1 46495U 20068K 26103.56539140 .00004439 00000+0 16112-3 0 9992 2 46495 97.8865 102.7460 0010532 159.4430 200.7234 15.28855640305482 XW-3 (CAS-9) 1 50466U 21131B 26104.18752858 .00000322 00000+0 11336-3 0 9999 2 50466 98.4945 196.9362 0002938 298.3866 61.7027 14.41295835225893 GREENCUBE (IO-117) 1 53109U 22080E 26102.66137228 -.00000003 00000+0 00000+0 0 9998 2 53109 70.1495 321.0449 0008941 304.4164 55.5650 6.42583304 87852 UMKA 1 (RS40S) 1 57172U 23091G 26104.19013242 .00003335 00000+0 15733-3 0 9997 2 57172 97.5113 163.1500 0012337 350.1663 9.9328 15.20112928154288 CUBESX-HSE 3 (RS42S) 1 57178U 23091N 26104.16198376 .00006454 00000+0 22696-3 0 9993 2 57178 97.5145 169.0049 0009778 324.4687 35.5901 15.29666564154637 MONITOR-3 (RS58S) 1 57180U 23091Q 26104.18323264 .00005590 00000+0 21604-3 0 9992 2 57180 97.5141 167.2065 0010783 331.3755 28.6890 15.26605991154527 MONITOR-4 (RS57S) 1 57182U 23091S 26104.16627769 .00005498 00000+0 21193-3 0 9999 2 57182 97.5134 167.1562 0010768 331.9003 28.1652 15.26700337154528 MONITOR-2 (RS39S) 1 57184U 23091U 26104.19990014 .00002593 00000+0 12954-3 0 9998 2 57184 97.5136 162.9057 0010581 343.2249 16.8633 15.18334629154245 SVYATOBOR 1 (RS60S) 1 57187U 23091X 26104.19364859 .00004878 00000+0 19500-3 0 9995 2 57187 97.5146 167.6939 0008318 324.5316 35.5368 15.25560044154559 VIZARD-METEO (RS38S) 1 57189U 23091Z 26104.19697029 .00008852 00000+0 27083-3 0 9996 2 57189 97.5138 172.4882 0005986 301.3278 58.7378 15.34070029154873 NANOZOND 1 (RS49S) 1 57190U 23091AA 26103.13742800 .01294825 98703-3 19373-2 0 9990 2 57190 97.4904 186.7286 0009924 254.0597 105.9590 16.04903813155736 POLYTECH-UNIVERSE 3 (R*) 1 57191U 23091AB 26104.16955582 .00002966 00000+0 14664-3 0 9998 2 57191 97.5111 162.3813 0015318 358.4429 1.6754 15.18530176154231 UTMN 2 (RS27S) 1 57203U 23091AP 26104.15005696 .00007152 00000+0 24477-3 0 9998 2 57203 97.5139 170.5477 0006825 310.9672 49.0977 15.30533862154746 KUZGTU 1 (RS47S) 1 57217U 23091AV 26104.16501581 .00006118 00000+0 22342-3 0 9998 2 57217 97.5119 168.0497 0010018 328.4813 31.5825 15.28451587154594 SONATE-2 1 59112U 24043Q 26103.65132145 .00022441 00000+0 34463-3 0 9995 2 59112 97.5450 250.3536 0007416 83.5924 276.6173 15.54259410117853 MESAT1 1 60209U 24125G 26103.57171365 .00028339 00000+0 39120-3 0 9990 2 60209 97.2403 319.8629 0012597 98.2189 262.0496 15.57053258 99494 OOV-CUBE (TUBSAT-30) 1 60240U 24128F 26103.97135134 .00001396 00000+0 11777-3 0 9998 2 60240 61.9929 89.4348 0051613 119.7435 240.8806 15.02460157 96466 COLIBRI-S (RS67S) 1 61746U 24199M 26104.19289162 .00011912 00000+0 25280-3 0 9993 2 61746 97.3101 337.5591 0010153 144.1576 216.0356 15.45141305127527 HORS 3 (RS81S) 1 61753U 24199U 26104.16210773 .00017873 00000+0 31024-3 0 9995 2 61753 97.3077 338.9055 0008408 144.8358 215.3450 15.50870110127629 HORS 4 (RS82S) 1 61754U 24199V 26104.15879691 .00022787 00000+0 34912-3 0 9994 2 61754 97.3040 339.7532 0008026 140.3940 219.7901 15.54311493127686 HORIZON (RS59S) 1 61757U 24199Y 26104.16659368 .00186364 00000+0 81769-3 0 9999 2 61757 97.2970 344.8683 0006613 131.2577 228.9264 15.84093868128017 ARCTICSAT 1 (RS74S) 1 61762U 24199AD 26103.94270029 .00103409 00000+0 69850-3 0 9999 2 61762 97.3000 343.8148 0007131 123.8132 236.3813 15.74733508127926 SIT-2086 1 61764U 24199AF 26104.19689882 .00013556 00000+0 24743-3 0 9995 2 61764 97.3067 339.6123 0007814 133.9466 226.2431 15.49509165124515 HYPERVIEW 1G (RS66S) 1 61772U 24199AP 26104.14975403 .00047993 00000+0 51815-3 0 9998 2 61772 97.3015 341.2706 0009144 140.2858 219.9072 15.63458942124632 ALTAIR (RS65S) 1 61779U 24199AW 26104.15485330 .00006016 00000+0 17434-3 0 9991 2 61779 97.3128 333.9542 0013455 168.8163 191.3383 15.35842299127288 ASRTU-1 (AO-123) 1 61781U 24199AY 26104.15749041 .00004475 00000+0 13487-3 0 9997 2 61781 97.3100 333.4174 0014330 171.6168 188.5318 15.34744019124101 TUSUR GO (RS78S) 1 61782U 24199AZ 26104.14463354 .00257556 00000+0 95930-3 0 9990 2 61782 97.2908 343.9148 0007154 141.2562 218.9224 15.87335052124814 SAMSAT-IONOSPHERE (RS7*) 1 61784U 24199BB 26104.15418228 .00021669 00000+0 35376-3 0 9995 2 61784 97.3060 338.7605 0010975 148.6275 211.5635 15.52526756127614 RTU MIREA 1 (RS51S) 1 61785U 24199BC 26104.16746985 .00025808 00000+0 38610-3 0 9994 2 61785 97.3053 339.3347 0011027 146.1328 214.0632 15.54907880124501 TEVEL2-4 1 63213U 25052D 26104.16805213 .00009299 00000+0 29936-3 0 9998 2 63213 97.3980 0.5398 0002573 28.7066 331.4317 15.32432709 60301 TEVEL2-5 1 63214U 25052E 26103.98612760 .00010101 00000+0 32642-3 0 9993 2 63214 97.3978 0.3229 0002575 28.3664 331.7718 15.32287343 60278 TEVEL2-6 1 63215U 25052F 26103.67035275 .00010053 00000+0 32533-3 0 9995 2 63215 97.3972 359.9922 0002734 27.8175 332.3213 15.32241568 60225 TEVEL2-1 1 63217U 25052H 26103.61331419 .00009229 00000+0 30322-3 0 9997 2 63217 97.3952 359.6319 0003256 36.7386 323.4078 15.31779722 60200 TEVEL2-3 1 63218U 25052J 26103.61000186 .00009356 00000+0 30692-3 0 9993 2 63218 97.3953 359.6435 0003320 36.5924 323.5544 15.31822169 60202 TEVEL2-2 1 63219U 25052K 26103.67922106 .00009195 00000+0 30205-3 0 9996 2 63219 97.3954 359.6991 0003274 36.9163 323.2303 15.31785334 60211 TEVEL2-9 1 63237U 25052AD 26103.96952558 .00008761 00000+0 30426-3 0 9995 2 63237 97.4016 359.4940 0006958 28.3374 331.8243 15.29978718 60208 TEVEL2-7 1 63238U 25052AE 26103.67210028 .00008648 00000+0 30270-3 0 9994 2 63238 97.4020 359.1385 0007122 28.9250 331.2383 15.29726415 60155 TEVEL2-8 1 63239U 25052AF 26103.61418882 .00008203 00000+0 28746-3 0 9999 2 63239 97.4017 359.0601 0007132 30.0262 330.1386 15.29705162 60146 HADES-ICM 1 63492U 25052BN 26104.16035924 .00168897 00000+0 13286-2 0 9991 2 63492 97.3873 6.2274 0004155 79.6678 280.5053 15.70960433 60683 INNOSAT 16 (RS92S7) 1 64878U 25155C 26104.16166145 .00003545 00000+0 14587-3 0 9998 2 64878 97.4511 71.5501 0012228 57.7197 302.5223 15.24734359 70919 GEOSCAN 6 (RS92S6) 1 64879U 25155D 26104.13321491 .00006359 00000+0 22887-3 0 9991 2 64879 97.4507 72.5191 0009613 54.8270 305.3869 15.28906146 70977 GEOSCAN 1 (RS92S1) 1 64880U 25155E 26104.15839707 .00006367 00000+0 22577-3 0 9994 2 64880 97.4504 72.6418 0009536 55.2544 304.9593 15.29398073 70987 239ALFEROV (RS61S) 1 64881U 25155F 26104.14561777 .00008285 00000+0 27720-3 0 9999 2 64881 97.4508 72.9946 0009201 55.8891 304.3222 15.31193125 71002 GEOSCAN 2 (RS92S2) 1 64890U 25155Q 26104.16381703 .00006456 00000+0 22688-3 0 9996 2 64890 97.4503 72.7734 0008510 45.1832 315.0098 15.29692401 70994 GEOSCAN 5 (RS92S5) 1 64891U 25155R 26104.21342551 .00008328 00000+0 27586-3 0 9993 2 64891 97.4500 73.1753 0008254 62.2753 297.9325 15.31524813 71025 GEOSCAN 4 (RS92S4) 1 64892U 25155S 26104.13791765 .00008580 00000+0 28306-3 0 9991 2 64892 97.4503 73.1315 0008298 62.8204 297.3883 15.31642656 71016 GEOSCAN 3 (RS92S3) 1 64893U 25155T 26104.21280716 .00010083 00000+0 31616-3 0 9999 2 64893 97.4492 73.4721 0008150 65.0339 295.1749 15.33227038 71044 INNOSAT 3 (RS92S0) 1 64894U 25155U 26104.18063625 .00019223 00000+0 49073-3 0 9995 2 64894 97.4456 74.3796 0007820 69.7957 290.4129 15.39504994 71109 KNACKSAT-2 1 67683U 98067XZ 26103.59735838 .00023774 00000+0 35547-3 0 9999 2 67683 51.6305 258.0103 0011243 317.2069 42.8046 15.54814916 10212